Home   Weather   Funchal   Past weeks

Flag for Portugal Past Weather in Funchal, Madeira, Portugal — Yesterday and Last 2 Weeks

Now
77 °F

Passing clouds.


Feels Like: 79 °F
Forecast: 71 / 79 °F
Wind: 17 mph from North

Location: Aeroporto Da Madeira

Current Time: Jul 26, 2017 at 8:00:43 pm

Latest Report: Jul 26, 2017 at 7:30 pm


Visibility: N/A

Pressure: 30.04 "Hg

Humidity: 65%

Dew Point: 64 °F

Location of FunchalLocation

Past Weather in Funchal — Graph

°F

Funchal Temperature Yesterday

Maximum temperature yesterday: 79 °F (at 2:30 pm)
Minimum temperature yesterday: 70 °F (at 4:30 am)
Average temperature yesterday: 73 °F

High & Low Weather Summary for the Past Weeks

 TemperatureHumidityPressure
High82 °F (Jul 26, 6:00 pm)88% (Jul 16, 6:30 am)30.27 "Hg (Jul 16, 6:30 am)
Low66 °F (Jul 16, 6:30 am)47% (Jul 20, 4:00 pm)30.01 "Hg (Jul 17, 5:30 pm)
Average73 °F68%30.12 "Hg
* Reported Jul 11 6:00 pm — Jul 26 6:30 pm, Funchal. Weather by CustomWeather, © 2017

Note: Actual official high and low records may vary slightly from our data, if they occured in-between our weather recording intervals... More about our weather records

Advertising

Funchal Weather History for the Previous 24 Hours

Scroll right to see more
 ConditionsComfort  
Time TempWeatherWind HumidityBarometerVisibility
6:30 pm
Wed, Jul 26
82 °FPassing clouds.18 mph48%30.04 "HgN/A
6:00 pm82 °FPassing clouds.21 mph48%30.04 "HgN/A
5:30 pm81 °FPassing clouds.20 mph54%30.04 "HgN/A
5:00 pm79 °FPassing clouds.23 mph58%30.04 "HgN/A
4:30 pm79 °FPassing clouds.22 mph58%30.04 "HgN/A
4:00 pm77 °FPassing clouds.20 mph65%30.04 "HgN/A
3:30 pm77 °FPassing clouds.17 mph61%30.07 "HgN/A
3:00 pm77 °FPassing clouds.21 mph61%30.04 "HgN/A
2:30 pm77 °FPassing clouds.24 mph61%30.07 "HgN/A
2:00 pm77 °FPassing clouds.16 mph61%30.07 "HgN/A
1:30 pm77 °FPassing clouds.20 mph61%30.07 "HgN/A
1:00 pm79 °FPassing clouds.26 mph58%30.07 "HgN/A
12:30 pm79 °FPassing clouds.26 mph54%30.04 "HgN/A
12:00 pm77 °FPassing clouds.25 mph57%30.04 "HgN/A
11:30 am77 °FPassing clouds.25 mph57%30.07 "HgN/A
11:00 am75 °FPassing clouds.23 mph61%30.07 "HgN/A
10:30 am75 °FPassing clouds.21 mph61%30.07 "HgN/A
10:00 am73 °FPassing clouds.22 mph61%30.07 "HgN/A
9:30 am72 °FPassing clouds.20 mph69%30.07 "HgN/A
9:00 am72 °FPassing clouds.17 mph69%30.07 "HgN/A
8:30 am70 °FPassing clouds.15 mph73%30.07 "HgN/A
8:00 am70 °FPassing clouds.15 mph73%30.07 "HgN/A
7:30 am70 °FPassing clouds.17 mph69%30.07 "HgN/A
7:00 am70 °FPassing clouds.22 mph73%30.04 "HgN/A
6:30 am70 °FPassing clouds.20 mph69%30.04 "HgN/A
6:00 am70 °FPassing clouds.22 mph69%30.04 "HgN/A
5:30 am70 °FPassing clouds.20 mph64%30.04 "HgN/A
5:00 am70 °FPassing clouds.21 mph64%30.04 "HgN/A
4:30 am70 °FPassing clouds.24 mph69%30.04 "HgN/A
4:00 am70 °FPassing clouds.28 mph69%30.04 "HgN/A
3:30 am70 °FPassing clouds.25 mph73%30.07 "HgN/A
3:00 am70 °FPassing clouds.21 mph73%30.07 "HgN/A
2:30 am70 °FPassing clouds.15 mph73%30.09 "HgN/A
2:00 am70 °FPassing clouds.15 mph73%30.09 "HgN/A
1:30 am72 °FPassing clouds.16 mph69%30.09 "HgN/A
1:00 am72 °FPassing clouds.15 mph65%30.09 "HgN/A
12:30 am72 °FPassing clouds.18 mph69%30.09 "HgN/A
12:00 am72 °FPassing clouds.20 mph69%30.09 "HgN/A
11:30 pm
Tue, Jul 25
72 °FPassing clouds.18 mph69%30.09 "HgN/A
11:00 pm72 °FPassing clouds.17 mph69%30.09 "HgN/A
10:30 pm72 °FPassing clouds.22 mph69%30.09 "HgN/A
10:00 pm72 °FPassing clouds.17 mph69%30.09 "HgN/A
9:30 pm72 °FPassing clouds.18 mph69%30.09 "HgN/A
9:00 pm72 °FPassing clouds.20 mph69%30.09 "HgN/A
8:30 pm73 °FPassing clouds.25 mph65%30.07 "HgN/A
8:00 pm73 °FPassing clouds.24 mph69%30.07 "HgN/A
Weather by CustomWeather, © 2017

See weather overviewHow to use our weather pages